Regional Weather Roundup
Issued by NWS

Home | Current Version | Previous Version | Graphics & Text | Print | Product List | Glossary On
Versions: 1 2 3 4 5 6 7 8 9 10 11 12 13 14 15 16 17 18 19 20 21 22 23 24 25 26 27 28 29 30 31 32 33 34 35 36 37 38 39 40 41 42 43 44 45 46 47 48 49 50
000
ASUS43 KTOP 280159
RWRKS

WEATHER ROUNDUP FOR KANSAS
NATIONAL WEATHER SERVICE GOODLAND KS
900 PM CDT THU AUG 27 2015

NOTE:  "FAIR" INDICATES FEW OR NO CLOUDS BELOW 12,000 FEET WITH NO
SIGNIFICANT WEATHER AND/OR OBSTRUCTIONS TO VISIBILITY.

KSZ001>006-013>018-027>032-041>047-280300-
NORTHWEST KANSAS

CITY           SKY/WX    TMP DP  RH WIND       PRES   REMARKS
GOODLAND       MOCLDY    80  58  46 N13       29.97R
HAYS           MOCLDY    79  64  61 S24G32    29.85R
HILL CITY      CLOUDY    86  60  41 S20G26    29.83R
RUSSELL        TSTM      75  68  78 S21       29.85R
$$

KSZ061>065-074>080-084>089-280300-
SOUTHWEST KANSAS

CITY           SKY/WX    TMP DP  RH WIND       PRES   REMARKS
DODGE CITY     LGT RAIN  72  63  73 SW20G31   29.92S
ELKHART          N/A     79  60  52 S7          N/A
GARDEN CITY    PTCLDY    76  61  59 SE16      29.89R
GREAT BEND     CLOUDY    75  64  69 S18G24    29.87S THUNDER
LIBERAL        MOCLDY    86  55  35 S17       29.91R
PRATT          CLOUDY    79  64  61 S13G29    29.90S
$$

KSZ066>073-081>083-090>101-280300-
SOUTHEAST KANSAS

CITY           SKY/WX    TMP DP  RH WIND       PRES   REMARKS
CHANUTE        CLOUDY    73  67  81 S13       29.99R
COFFEYVILLE    CLOUDY    70  65  84 S6        30.00R
HUTCHINSON     LGT RAIN  79  66  64 S12       29.90F
NEWTON         CLOUDY    79  64  61 S12       29.96R
WICHITA INTL   CLOUDY    81  66  60 SE16G26   29.91F
WICHITA JABRA  CLOUDY    79  68  69 SE14G25   29.92F
WINFIELD       MOCLDY    75  66  73 SE16      29.97R
$$

KSZ007>012-019>026-033>040-048>060-102>105-280300-
NORTHEAST KANSAS

CITY           SKY/WX    TMP DP  RH WIND       PRES   REMARKS
CONCORDIA      TSTM      72  68  87 SE10G21   29.91S
EMPORIA        CLOUDY    73  65  75 SE12      29.95R
LAWRENCE       CLOUDY    71  67  87 SE9       29.98R
MANHATTAN      CLOUDY    78  65  63 S9        29.91R
OLATHE IND     MOCLDY    70  67  90 SE8       30.00R
OLATHE EXE     MOCLDY    68  66  93 SE6       30.00R
SALINA         CLOUDY    83  65  54 SE17      29.87S
TOPEKA BILLARD CLOUDY    73  67  81 E12       29.96R
TOPEKA FORBES  CLOUDY    73  66  78 SE12      29.95R
$$


USA.gov is the U.S. government's official web portal to all federal, state and local government web resources and services.